User: anonymous
Location: Gipe Farm
(40.9466°N, 95.5370°W)
Time: 05:20:34
(UTC-05:00)
Language:

Cosmos 1842 - Orbit

View from above orbital plane
View from above orbital plane
View from above satellite
View from above satellite

Ground track
Ground track

The orbit data is extracted from the following two-line orbital elements,

1 17911U 87038A   14207.83918898  .00001877  00000-0  12494-3 0  5298
2 17911 082.4934 145.2981 0011855 241.5826 118.4207 15.06527514482439
Epoch (UTC): 26 July 2014 20:08:25
Eccentricity: 0.0011855
inclination: 82.4934°
perigee height: 538 km
apogee height: 555 km
right ascension of ascending node: 145.2981°
argument of perigee: 241.5826°
revolutions per day: 15.06527514
mean anomaly at epoch: 118.4207°
orbit number at epoch: 48243

The dashed part of the orbit path shows where the satellite is in the earth's shadow,  

DLR